ZQ-2E R/B, 62113

Orbit data source: Space-Track

ZQ-2E R/B, 62113 is space debris in LEO originally from a launch on Wed, 27 Nov 2024 UTC launched from the Jiuquan Satellite Launch Center, China (JSC). Debris objects in space refer to the collection of defunct objects orbiting the Earth. Examples of debris include non-operational satellites, rocket bodies, and fragments generated from explosions, collisions, or faulty payload assembly.

Not visible in the next 10 days
ZQ-2E R/B details
Identifier
62113, 2024-221C
Orbit
LEO
Last TLE update13 hours ago
Origin
Flag of CNLanjian Hangtian (CN / PRC)
ManufacturerLanjian Hangtian
MissionSpacecraft
Bus & MotorZQ-2 ST 2, Unknown motor
Mass~5,000 kg wet, ~5,000 kg dry
Launch date (UTC)
2024-11-27 (2 weeks ago)
Launch vehicleUnknown
Launch site
Jiuquan Satellite Launch Center, China (JSC)
Object type
Payload
Rocket body
Debris
Shape & HBRUnknown
Radar Cross SectionLarge (>1 m²)

Expand to show TLE details & history

TLE from 13 hours ago
0 ZQ-2E R/B
1 62113U 24221C   24348.33394123  .01090432  10863-4  66331-3 0  9996
2 62113  49.9238 335.9685 0224582 122.7251 239.5595 15.81511483  2537
Epoch: 2024-12-13T08:00Z
Definitive object data (Epoch: 2024-12-13T08:00:52.522Z)
Latitude-0.00004°
Longitude133.24821°
Altitude405.476 km
Speed7.624 km/s
True Right ascension22h 23m 52s
True Declination0° 00' 00"
Sunlit
Object was in daylight at TLE epoch
Visualization TLE readout
Latitude-41.68271°
Longitude82.07357°
Altitude483.16 km
Speed7.54 km/s
Apparent Right ascension14h 09m 55s
Apparent Declination-81° 45' 33"
Sunlit
Object is in daylight
Visualization observer readout
Local Sidereal Time19:55:19
Azimuth190.592° SSW
Elevation-38.906°
Doppler factor1
Orbital elements
Apogee altitude477.555 km
Perigee altitude176.385 km
Semi-major axis6,705.107 km
Eccentricity0.0224582
Inclination49.9238°
RAAN335.9685°
Arg. of periapsis122.7251°
True anomaly237.37239°
Mean anomaly239.5595°
Eccentric anomaly238.46279°
Mean motion3.95307 °/min
BSTAR0.00066331
Orbital period91.07 mins
Loading maneuver chart data...
Loading historical data...
Loading historical data...
Loading historical data...
Loading historical data...
Loading historical data...
Loading historical data...
Loading historical data...
Other satellites on launch #221 in the year 2024 (2024-11-27 UTC)

ZQ-2E R/B Visibility forecast

Observer location: undefined°, undefined

ZQ-2E R/B is not visible in the next 10 days
Span
Click to sort rows by Start time (UTC) header in descending order
Start Az.
Max El. time (UTC)
Max El. Az.
Max El.
End time (UTC)
End Az.
|